EW5712 Weather Reports


time (UTC)temp
C
wind
direction
speed
KPH
gust
KPH
rain 1hr
cm
rain 24hr
cm
rain mn
cm
humidity
%
barometer
mb
20260510011429 11 268 0.0 0.0 0.00 1.12 1.12 87 1008.0
20260510005405 12 268 0.0 0.0 0.00 1.12 1.12 87 1008.0
20260510004411 12 268 0.0 0.0 0.00 1.12 1.12 87 1008.0
20260510003425 12 268 0.0 0.0 0.00 1.12 1.12 87 1007.9
20260510001425 12 268 0.0 0.0 0.00 1.12 1.12 87 1007.4
20260510000419 12 268 0.0 0.0 0.00 1.12 1.12 87 1007.3
20260509235411 13 129 0.0 0.0 0.00 1.12 1.12 86 1007.3
20260509233416 12 129 0.0 0.0 0.00 1.12 1.12 86 1007.1
20260509230433 12 322 0.0 0.0 0.00 1.12 1.12 84 1007.2
20260509225455 12 157 0.0 0.0 0.00 1.12 1.12 84 1007.1
20260509223429 12 294 0.0 0.0 0.00 1.12 1.12 83 1007.6
20260509220421 12 199 0.0 0.0 0.05 1.12 1.12 84 1007.9
20260509215424 12 184 0.0 0.0 0.05 1.12 1.12 84 1008.0
20260509213408 12 184 0.0 0.0 0.08 1.12 1.12 84 1008.0
20260509212433 12 229 0.0 0.0 0.08 1.09 1.09 84 1008.2
20260509211407 12 300 0.0 0.0 0.08 1.07 1.07 83 1008.1
20260509210408 12 177 0.0 0.0 0.08 1.07 1.07 83 1008.1
20260509205354 11 177 0.0 0.0 0.10 1.07 1.07 83 1007.9
20260509204417 11 177 0.0 0.0 0.10 1.07 1.07 84 1008.1
20260509203405 11 142 0.0 0.0 0.10 1.04 1.04 84 1008.4
20260509202402 11 305 0.0 0.0 0.10 1.02 1.02 84 1008.5
20260509201345 11 316 0.0 0.0 0.10 0.99 0.99 84 1008.7
20260509200353 11 150 0.0 0.0 0.15 0.99 0.99 85 1008.9
20260509195342 11 307 0.0 0.0 0.13 0.97 0.97 85 1008.9
20260509194355 11 307 0.0 0.0 0.18 0.97 0.97 85 1008.9
20260509193358 11 215 0.0 0.0 0.18 0.94 0.94 85 1009.0
20260509192401 11 163 0.0 0.0 0.18 0.91 0.91 85 1009.1
20260509190342 11 216 0.0 0.0 0.10 0.84 0.84 84 1009.0
20260509185351 11 168 0.0 0.0 0.13 0.84 0.84 83 1009.0
20260509184349 11 128 0.0 0.0 0.08 0.79 0.79 83 1009.0
20260509182353 11 180 0.0 0.0 0.13 0.74 0.74 83 1009.1
20260509175400 11 172 0.0 0.0 0.28 0.74 0.71 83 1009.0
20260509173355 11 182 0.0 0.0 0.28 0.74 0.69 83 1009.0
20260509172329 11 165 0.0 0.0 0.20 0.69 0.61 83 1009.1
20260509170346 11 155 0.0 0.0 0.10 0.61 0.48 83 1009.0
20260509165352 11 155 0.0 0.0 0.05 0.56 0.43 83 1009.1
20260509164342 11 155 0.0 0.0 0.05 0.56 0.43 83 1009.1
20260509163346 11 155 0.0 0.0 0.05 0.53 0.41 83 1009.2
20260509162346 11 155 0.0 0.0 0.05 0.53 0.41 84 1009.2
20260509161350 11 155 0.0 0.0 0.08 0.53 0.41 84 1009.3
20260509160354 11 161 0.0 0.0 0.05 0.51 0.38 83 1009.3
20260509155347 11 161 0.0 0.0 0.05 0.51 0.38 84 1009.4
20260509154334 10 161 0.0 0.0 0.08 0.51 0.38 84 1009.5
20260509153327 11 161 0.0 0.0 0.08 0.48 0.38 84 1009.8
20260509152322 10 161 0.0 0.0 0.08 0.48 0.36 84 1010.0
20260509151314 10 161 0.0 0.0 0.08 0.46 0.33 84 1009.9
20260509150323 10 161 0.0 0.0 0.10 0.46 0.33 84 1009.9
20260509145321 10 161 0.0 0.0 0.10 0.46 0.33 84 1009.9
20260509144336 10 161 0.0 0.0 0.10 0.43 0.30 84 1009.8
20260509143333 10 161 0.0 0.0 0.10 0.41 0.28 84 1009.8
20260509142307 10 161 0.0 0.0 0.10 0.41 0.28 84 1009.8
20260509141251 10 161 0.0 0.0 0.10 0.38 0.25 84 1009.7
20260509140242 10 161 0.0 0.0 0.08 0.36 0.23 84 1009.7
20260509134257 10 161 0.0 0.0 0.05 0.33 0.20 84 1009.5
20260509133306 10 161 0.0 0.0 0.03 0.30 0.18 84 1009.6
20260509132250 10 161 0.0 0.0 0.03 0.30 0.18 84 1009.5
20260509125311 10 161 0.0 0.0 0.00 0.28 0.15 84 1009.5
20260509124301 9 161 0.0 0.0 0.00 0.28 0.15 84 1009.5
20260509122325 9 161 0.0 0.0 0.00 0.28 0.15 84 1009.7
20260509114242 8 161 0.0 0.0 0.00 0.28 0.15 84 1009.8
20260509113253 8 161 0.0 0.0 0.00 0.28 0.15 84 1009.7
20260509111311 8 161 0.0 0.0 0.03 0.28 0.15 84 1009.8
20260509110256 8 161 0.0 0.0 0.03 0.28 0.15 84 1009.9
20260509105311 8 161 0.0 0.0 0.03 0.28 0.15 85 1010.2
20260509104259 8 161 0.0 0.0 0.03 0.28 0.15 85 1010.0
20260509103309 8 161 0.0 0.0 0.03 0.28 0.15 84 1010.0
20260509102320 8 161 0.0 0.0 0.03 0.28 0.15 85 1009.9
20260509100257 8 161 0.0 0.0 0.00 0.25 0.13 85 1010.0
20260509095237 8 161 0.0 0.0 0.00 0.25 0.13 85 1010.0
20260509094239 8 161 0.0 0.0 0.00 0.25 0.13 85 1010.0
20260509091233 8 161 0.0 0.0 0.00 0.25 0.13 85 1010.5
20260509090213 8 161 0.0 0.0 0.03 0.25 0.13 85 1010.6
20260509085158 8 161 0.0 0.0 0.03 0.25 0.13 85 1010.6
20260509084200 8 161 0.0 0.0 0.05 0.25 0.13 85 1010.5
20260509083206 8 161 0.0 0.0 0.05 0.25 0.13 85 1010.4
20260509082204 8 161 0.0 0.0 0.05 0.25 0.13 85 1010.3
20260509081150 8 161 0.0 0.0 0.05 0.25 0.13 85 1010.4
20260509075212 8 161 0.0 0.0 0.05 0.23 0.10 85 1010.6
20260509073228 8 161 0.0 0.0 0.05 0.20 0.08 86 1010.6
20260509072212 8 161 0.0 0.0 0.05 0.20 0.08 86 1010.8
20260509071208 8 161 0.0 0.0 0.08 0.20 0.08 86 1011.0
20260509070153 8 161 0.0 0.0 0.05 0.18 0.05 86 1011.3
20260509065157 8 161 0.0 0.0 0.05 0.18 0.05 86 1011.5
20260509064158 8 161 0.0 0.0 0.03 0.15 0.03 87 1011.4
20260509063206 8 161 0.0 0.0 0.03 0.15 0.03 87 1011.4
20260509062149 8 161 0.0 0.0 0.03 0.15 0.03 87 1010.9
20260509053156 8 161 0.0 0.0 0.00 0.20 0.00 87 1010.8
20260509052203 8 161 0.0 0.0 0.00 0.23 0.00 87 1010.9
20260509051209 8 161 0.0 0.0 0.00 0.25 0.00 87 1011.0
20260509050226 8 161 0.0 0.0 0.00 0.30 0.00 87 1011.0
20260509045222 8 161 0.0 0.0 0.00 0.33 0.00 87 1011.1
20260509044200 8 161 0.0 0.0 0.00 0.36 0.00 87 1011.2
20260509043159 8 161 0.0 0.0 0.00 0.41 0.00 87 1011.2
20260509042206 8 161 0.0 0.0 0.00 0.43 0.41 85 1011.1
20260509041209 8 161 0.0 0.0 0.00 0.43 0.41 85 1011.3
20260509035212 8 161 0.0 0.0 0.00 0.43 0.41 84 1011.1
20260509032145 9 161 0.0 0.0 0.00 0.43 0.41 83 1011.0
20260509031104 9 161 0.0 0.0 0.00 0.43 0.41 83 1011.0
20260509030051 10 161 0.0 0.0 0.00 0.43 0.41 82 1011.1
20260509024128 10 161 0.0 0.0 0.00 0.43 0.41 82 1011.2
20260509023120 10 161 0.0 0.0 0.00 0.43 0.41 82 1011.1
20260509022101 10 161 0.0 0.0 0.00 0.43 0.41 82 1011.0
20260509014105 10 161 0.0 0.0 0.00 0.43 0.41 79 1010.6
20260509012126 10 161 0.0 0.0 0.00 0.43 0.41 78 1010.4